Location: Hartman Creek State Park
(44.3257°N, 89.2134°W)
Time: 21:18:48
(UTC-05:00)

Cosmos 2263 Rocket - Visible Passes

Search period start: 30 August 2016 00:00
Search period end: 09 September 2016 00:00
Orbit: 825 x 847 km, 71.0° (Epoch: 30 August)

Date Brightness Start Highest point End Pass type
(mag) Time Alt. Az. Time Alt. Az. Time Alt. Az.
30 Aug 4.7 00:15:21 10° WNW 00:16:14 12° W 00:16:14 12° W visible
30 Aug 4.0 20:29:40 10° N 20:33:07 16° NE 20:36:32 10° E visible
30 Aug 2.0 22:12:19 10° NNW 22:17:55 84° ENE 22:18:16 78° SE visible
30 Aug 4.5 23:58:18 10° WNW 23:59:58 13° W 23:59:58 13° W visible
31 Aug 4.0 20:13:07 10° N 20:16:20 15° NE 20:19:33 10° ENE visible
31 Aug 2.0 21:55:38 10° NNW 22:01:14 78° ENE 22:02:03 64° SE visible
31 Aug 4.4 23:41:17 10° WNW 23:43:45 15° W 23:43:45 15° W visible
01 Sep 4.1 19:56:35 10° N 19:59:33 14° NE 20:02:31 10° ENE visible
01 Sep 2.1 21:38:56 10° NNW 21:44:31 72° ENE 21:45:51 52° SE visible
01 Sep 4.3 23:24:21 10° WNW 23:27:33 17° W 23:27:33 17° W visible
02 Sep 2.1 21:22:15 10° NNW 21:27:49 67° ENE 21:29:42 41° SE visible
02 Sep 4.2 23:07:27 10° WNW 23:11:09 18° W 23:11:25 18° WSW visible
03 Sep 2.2 21:05:34 10° NNW 21:11:07 62° ENE 21:13:37 32° SE visible
03 Sep 4.1 22:50:34 10° NW 22:54:30 20° W 22:55:20 19° WSW visible
04 Sep 2.3 20:48:53 10° NNW 20:54:24 57° ENE 20:57:35 25° SE visible
04 Sep 4.0 22:33:43 10° NW 22:37:51 22° W 22:39:17 20° WSW visible
05 Sep 2.4 20:32:13 10° NNW 20:37:40 53° ENE 20:41:36 19° SE visible
05 Sep 4.0 22:16:53 10° NW 22:21:13 24° WSW 22:23:19 19° SW visible
06 Sep 2.5 20:15:32 10° NNW 20:20:57 49° ENE 20:25:42 13° SE visible
06 Sep 3.9 22:00:03 10° NW 22:04:33 26° WSW 22:07:25 17° SW visible
07 Sep 2.6 19:58:52 10° NNW 20:04:14 45° ENE 20:09:34 10° SE visible
07 Sep 3.9 21:43:15 10° NW 21:47:54 28° WSW 21:51:37 14° SSW visible
08 Sep 2.7 19:42:13 10° NNW 19:47:30 42° ENE 19:52:47 10° SE visible
08 Sep 3.8 21:26:27 10° NW 21:31:14 30° WSW 21:35:55 10° SSW visible
